Regional Weather Roundup
Issued by NWS

Home | Current Version | Previous Version | Text Only | Print | Product List | Glossary Off
Versions: 1 2 3 4 5 6 7 8 9 10 11 12 13 14 15 16 17 18 19 20 21 22 23 24 25 26 27 28 29 30 31 32 33 34 35 36 37 38 39 40 41 42 43 44 45 46 47 48 49 50

000
ASUS43 KMPX 232010
RWRMN
WEATHER ROUNDUP FOR MINNESOTA
NATIONAL WEATHER SERVICE TWIN CITIES/CHANHASSEN MN
300 PM CDT WED APR 23 2014


NOTE: "FAIR" INDICATES FEW OR NO CLOUDS BELOW 12,000 FEET WITH NO
SIGNIFICANT WEATHER AND/OR OBSTRUCTIONS TO VISIBILITY. N/A MEANS
CURRENT SKY AND/OR WEATHER CONDITIONS ARE NOT AVAILABLE.

MNZ060>063-068>070-232100-
   Twin Cities Metro

CITY           SKY/WX    TMP DP  RH WIND       PRES   REMARKS
TWIN CITIES    LGT RAIN  41  38  89 E17       30.04F
ST PAUL        LGT RAIN  41  36  82 SE15G23   30.07F
CRYSTAL        LGT RAIN  42  36  79 SE13      30.02F
EDEN PRAIRIE   LGT RAIN  42  36  79 E16G24    30.01F
LAKEVILLE      CLOUDY    37  37 100 E16       30.02F
SOUTH ST PAUL  LGT RAIN  42  39  91 SE7       30.06F
LAKE ELMO      LGT RAIN  43  36  75 S9G17     30.07S
$$
MNZ001>005-007-008-013>017-022>024-027-028-232100-
   Northwest Minnesota

CITY           SKY/WX    TMP DP  RH WIND       PRES   REMARKS
BEMIDJI        CLOUDY    49  24  38 SE21G29   29.93F
HALLOCK        DRIZZLE   48  41  76 S15       29.87F
ROSEAU         CLOUDY    57  25  28 SE20G25   29.92S
WARROAD        PTSUNNY   55  28  35 E15       29.93F
THIEF RVR FALL CLOUDY    45  36  70 E16       29.89F
CROOKSTON      RAIN      45  43  93 SE12      29.89F
FOSSTON        RAIN      45  36  70 SE13      29.90S
DETROIT LAKES  RAIN      37  37 100 SE22G28   29.89F
MOORHEAD       CLOUDY    45  43  93 SE23      29.85F
PARK RAPIDS    LGT RAIN  42  37  82 S16       29.94S
$$
MNZ006-009>011-018-025>026-232100-
   North Central Minnesota

CITY           SKY/WX    TMP DP  RH WIND       PRES   REMARKS
BAUDETTE       CLOUDY    56  24  29 SE12G21   29.95F
FLAG ISLAND    CLOUDY    52  21  30 E12G17    29.95F
INTL FALLS     CLOUDY    55  22  27 S12G18    30.00F
WASKISH        CLOUDY    55  25  30 SE16G22   29.95F
BIG FORK       CLOUDY    55  21  26 SE10G16   29.99F
LONGVILLE      CLOUDY    50  23  34 SE15G23   29.97F
GRAND RAPIDS   CLOUDY    52  21  30 SE10      30.00F
CRANE LAKE     CLOUDY    55  19  24 S6        30.05F
ORR            CLOUDY    55  18  22 SE9       29.99F
COOK           CLOUDY    55  23  28 SE12      30.02F
$$
MNZ012-019>021-037-232100-
   Northeast Minnesota

CITY           SKY/WX    TMP DP  RH WIND       PRES   REMARKS
DULUTH         PTSUNNY   48  26  42 E13       30.05F
ELY            CLOUDY    52  19  28 SE12      30.05F
HIBBING        CLOUDY    55  22  27 SE10G18   30.02F
EVELETH        PTSUNNY   54  21  28 SE12G17   30.04F
DULUTH HARBOR  PTSUNNY   37  30  75 CALM      30.09F
TWO HARBORS    PTSUNNY   48  28  46 E10       30.06F
SILVER BAY     PTSUNNY   46  30  53 E6        30.08F
GRAND MARAIS     N/A     38  28  67 CALM      30.14F
G MARAIS ARPRT PTSUNNY   43  21  42 SE6       30.11S
$$
MNZ029>031-032-039>041-046>048-054>057-064-232100-
   West Central Minnesota

CITY           SKY/WX    TMP DP  RH WIND       PRES   REMARKS
FERGUS FALLS   LGT RAIN  41  39  93 SE25G35   29.82F
WHEATON        CLOUDY    45  39  81 SE37      29.80F
MORRIS         CLOUDY    43  37  81 SE26G36   29.84F
ALEXANDRIA     CLOUDY    40  37  89 SE20G29   29.91F
ELBOW LAKE     CLOUDY    41  38  89 SE22G29   29.84F
WADENA         RAIN      37  36  93 SE16G25   29.93S
GLENWOOD       CLOUDY    39  37  93 E23G31    29.90F
APPLETON       CLOUDY    45  37  76 SE25G36   29.83F
BENSON         CLOUDY    43  37  81 SE18G32   29.86F
ORTONVILLE     CLOUDY    43  36  75 SE23G31   29.80S
MADISON        CLOUDY    46  39  76 SE35G44   29.79F
WILLMAR        DRIZZLE   43  36  75 SE26      29.92F
$$
MNZ033>034-036-042>043-049>051-058-059-232100-
   Central Minnesota

CITY           SKY/WX    TMP DP  RH WIND       PRES   REMARKS
ST CLOUD       LGT RAIN  42  37  82 SE13      30.01S
SAUK CENTRE    LGT RAIN  38  37  94 E20       29.93F
PAYNESVILLE    LGT RAIN  39  37  93 E17G25    29.95F
AITKIN         CLOUDY    54  23  30 SE9       30.00S
PINE RIVER     CLOUDY    48  28  46 SE16G25   30.00F
BRAINERD       LGT RAIN  50  29  44 SE15G24   30.00S
STAPLES        LGT RAIN  37  36  93 SE12G18   29.96F
LONG PRAIRIE   CLOUDY    37  36  93 E17G23    29.95F
LITTLE FALLS   MIX PCPN  39  34  81 E13G20    29.99F
LITCHFIELD     CLOUDY    41  39  93 E20       29.97F
BUFFALO        LGT RAIN  40  36  86 E15G21    30.01F
MAPLE LAKE     DRIZZLE   40  38  92 E9G17     30.01F
$$
MNZ037-044-045-052-053-232100-
   East Central Minnesota

CITY           SKY/WX    TMP DP  RH WIND       PRES   REMARKS
PRINCETON      LGT RAIN  46  30  53 SE18      30.02F
MORA           CLOUDY    48  27  43 SE9G16    30.05S
CAMBRIDGE      CLOUDY    52  32  46 SE9G17    30.01F
RUSH CITY      CLOUDY    50  28  42 SE12G17   30.04F
MOOSE LAKE     CLOUDY    52  27  37 S6        30.02F
HINCKLEY       MOCLDY    50  28  43 SE9       30.04F
CLOQUET        CLOUDY    50  23  34 E9        30.04F
MCGREGOR       CLOUDY    50  25  37 SE10G17   30.02F
$$
MNZ071>073-080-081-089-090-097-098-232100-
   Southwest Minnesota

CITY           SKY/WX    TMP DP  RH WIND       PRES   REMARKS
MONTEVIDEO     CLOUDY    41  37  87 SE29G36   29.85S
GRANITE FALLS  CLOUDY    42  36  78 E18G30    29.87S
CANBY          CLOUDY    45  37  74 SE29G40   29.78F
MARSHALL       CLOUDY    45  36  70 SE24G30   29.79F
REDWOOD FALLS  CLOUDY    43  36  76 SE21G36   29.88F
OLIVIA         CLOUDY    41  36  81 SE18G29   29.90F
PIPESTONE      MOSUNNY   52  37  58 SE23G31   29.74F
WINDOM         CLOUDY    46  36  66 E22G32    29.85F
WORTHINGTON    CLOUDY    48  34  57 SE32      29.81F
JACKSON        CLOUDY    46  34  61 SE22G33   29.86F
TRACY          CLOUDY    46  37  71 SE21      29.82F
SLAYTON        CLOUDY    46  36  67 SE30G40   29.79F
$$
MNZ065>067-074>077-082>085-091>093-232100-
   South Central Minnesota

CITY           SKY/WX    TMP DP  RH WIND       PRES   REMARKS
MANKATO        CLOUDY    45  34  65 SE17G26   29.96F
NEW ULM        LGT RAIN  43  37  81 SE22      29.93F
ST JAMES       CLOUDY    45  36  70 E18G25    29.92S
FAIRMONT       CLOUDY    45  34  65 SE20G29   29.92R
GLENCOE        CLOUDY    42  36  78 E16G24    29.98S
FARIBAULT      CLOUDY    45  34  65 E14       30.00F
OWATONNA       CLOUDY    45  36  70 E17G24    29.99F
WASECA         CLOUDY    43  32  65 E17       29.99S
ALBERT LEA     CLOUDY    46  34  61 SE20G26   29.97F
$$
MNZ078>079-086>088-094>096-232100-
   Southeast Minnesota

CITY           SKY/WX    TMP DP  RH WIND       PRES   REMARKS
ROCHESTER      CLOUDY    45  30  55 E18       30.03F
RED WING       RAIN      41  36  81 S9        30.08S
STANTON        CLOUDY    41  36  81 E12       30.02F
DODGE CENTER   CLOUDY    46  34  61 SE17      30.01F
WINONA         LGT RAIN  46  32  57 S6        30.11R
AUSTIN         CLOUDY    46  30  53 SE20      29.99F
PRESTON        CLOUDY    48  29  47 SE16      30.06F
$$
ABBREVIATIONS USED IN REMARKS
   TC - TEMPERATURES IN CELSIUS
  WCI - WIND CHILL INDEX
   HX - HEAT INDEX
  VSB - VISIBILITY
$$



USA.gov is the U.S. government's official web portal to all federal, state and local government web resources and services.